Meteo Giornale » Osservazioni meteo Italia » Genova-Sestri

ore: 22:20 - Osservazioni Meteo Genova-Sestri
Lat. 44° 25' N Lon. 8° 51' E Alt. 2 metri s.l.m.

sereno Europe/Rome

11 °C

Sereno

Temp. 24 Ore

11 °C

15 °C

Nord

5.5 Km/h

Dew point 8 °C

Umidità 81 %

Visibilità  10 Km

Il sole sorge alle ore 07:18

Il sole tramonta alle ore 17:58

Data e Ora Cielo e Fenomeni T °C DP °C Um. % Pres. hPa Vis. km Vento km/h
Oggi h: 22:20 sereno Sereno 11 8 81 1023 10 N 5.5
Oggi h: 21:50 sereno Sereno 11 8 81 1024 10 N 1.8
Oggi h: 21:20 sereno Sereno 11 8 81 1024 10 N 5.5
Oggi h: 20:50 sereno Sereno 11 8 81 1024 10 N 5.5
Oggi h: 20:20 sereno Sereno 12 9 81 1024 10 N 9.3
Oggi h: 19:50 sereno Sereno 12 9 81 1024 10 N 7.4
Oggi h: 19:20 sereno Sereno 13 9 76 1024 10 N 5.5
Oggi h: 18:50 sereno Sereno 13 10 81 1023 10 E/SE 7.4
Oggi h: 18:20 sereno Sereno 13 9 76 1023 10 N 3.7
Oggi h: 17:50 poco_nuvoloso Poco Nuvoloso 14 9 71 1023 10 N 3.7
Oggi h: 16:50 poco_nuvoloso Poco Nuvoloso 14 9 71 1023 10 N 3.7
Oggi h: 16:20 poco_nuvoloso Poco Nuvoloso 14 10 76 1023 10 SE 9.3
Oggi h: 15:50 sereno Sereno 14 10 76 1023 10 SE 13
Oggi h: 14:50 poco_nuvoloso Poco Nuvoloso 14 11 82 1023 10 E/SE 16.7
Oggi h: 14:20 poco_nuvoloso Poco Nuvoloso 14 11 82 1023 10 E/SE 20.3
Oggi h: 13:50 poco_nuvoloso Poco Nuvoloso 14 11 82 1024 10 E/SE 20.3
Oggi h: 13:20 poco_nuvoloso Poco Nuvoloso 14 12 87 1024 10 E/SE 22.2
Oggi h: 12:50 poco_nuvoloso Poco Nuvoloso 14 11 82 1024 10 E/SE 22.2
Oggi h: 12:20 nuvoloso Nuvoloso 14 12 87 1024 10 E/SE 22.2
Oggi h: 11:50 nuvoloso Nuvoloso 14 12 87 1024 10 E/SE 9.3
Oggi h: 11:20 poco_nuvoloso Poco Nuvoloso 14 10 76 1024 10 SE 13
Oggi h: 10:50 poco_nuvoloso Poco Nuvoloso 15 9 67 1024 10 E/NE 13
Oggi h: 10:20 poco_nuvoloso Poco Nuvoloso 14 9 71 1024 10 N/NE 9.3
Oggi h: 09:50 poco_nuvoloso Poco Nuvoloso 14 9 71 1023 10 N/NE 16.7
Oggi h: 09:20 poco_nuvoloso Poco Nuvoloso 13 9 76 1023 10 N 3.7
Oggi h: 08:50 poco_nuvoloso Poco Nuvoloso 12 8 76 1023 10 N/NE 20.3
Oggi h: 08:20 poco_nuvoloso Poco Nuvoloso 12 8 76 1023 10 N/NE 18.5
Oggi h: 07:50 nuvoloso Nuvoloso 12 8 76 1023 10 N/NE 20.3
Oggi h: 07:20 nuvoloso Nuvoloso 12 9 81 1022 10 N/NE 18.5
Oggi h: 06:50 poco_nuvoloso Poco Nuvoloso 12 9 81 1022 10 NE 20.3
Oggi h: 06:20 nuvoloso Nuvoloso 12 9 81 1022 10 NE 22.2
Oggi h: 05:50 nuvoloso Nuvoloso 12 9 81 1022 10 NE 16.7
Oggi h: 05:20 molto_nuvoloso Molto Nuvoloso 13 10 81 1022 10 NE 16.7
Oggi h: 04:50 molto_nuvoloso Molto Nuvoloso 13 12 93 1022 10 N/NE 11.1
Oggi h: 04:20 molto_nuvoloso Molto Nuvoloso 13 12 93 1022 10 N/NE 7.4
Oggi h: 03:50 coperto Coperto 13 12 93 1022 10 N 3.7
Oggi h: 03:20 molto_nuvoloso Molto Nuvoloso 13 12 93 1022 10 N 5.5
Oggi h: 02:50 coperto Coperto 13 12 93 1022 10 S/SE 7.4
Oggi h: 02:20 molto_nuvoloso Molto Nuvoloso 13 13 100 1022 8 S/SE 14.8
Oggi h: 01:50 molto_nuvoloso Molto Nuvoloso 13 13 100 1022 10 S/SE 14.8
Oggi h: 01:20 coperto_pioggia Pioviggine Leggera 14 13 93 1022 8 S 18.5
Oggi h: 00:50 coperto_pioggia Pioviggine Leggera 13 13 100 1022 6 S/SE 18.5
Oggi h: 00:20 coperto_pioggia Pioviggine 13 13 100 1023 4 S/SE 20.3
Ieri h: 23:50 coperto_pioggia Pioviggine Foschia 13 13 100 1023 3 S 16.7
Ieri h: 23:20 coperto_pioggia Pioviggine Leggera Foschia 13 13 100 1023 3 S 20.3
Ieri h: 22:50 coperto_pioggia Pioviggine Foschia 13 13 100 1023 3 S/SE 22.2